[[{"header":{"parameterUnit":"m.s-1","parameterCategory":1,"la1":30.2991,"la2":30.254,"lo1":-89.0895,"lo2":-89.0444,"dy":0.0017,"dx":0.0017,"nx":28,"ny":28,"refTime":"2023-10-18T03:00:00:Z","depth":0,"parameterNumber":2,"parameterNumberName":"U-component_of_WINDS"},"data":[0,0,0,0,0,0,0,0,0,0,0,0,0,0,0,0,0,0,0,0,0,0,0,0,0,0,0,0,0,0,0,0,0,0,0,0,0,0,0,0,0,0,0,0,0,0,0,0,0,0,0,0,0,0,0,0,0,0,1.5795,1.5796,0,1.5813,1.5813,1.5814,1.5701,1.5697,1.5694,1.5691,1.5715,1.5719,1.5723,0,0,0,0,0,0,0,0,0,0,0,0,0,1.5669,1.5672,1.5795,1.5796,1.5796,1.5813,1.5813,1.5814,1.5701,1.5697,1.5693,1.569,1.5714,1.5719,1.5723,0,0,0,0,0,0,0,0,0,0,0,0,0,1.5709,1.5673,1.5795,1.5742,1.5737,1.5813,1.5813,1.5814,1.5702,1.5697,1.5692,1.5688,1.5713,1.5718,1.5724,1.5854,0,0,1.574,1.5743,0,0,0,0,0,0,0,0,1.5707,1.5714,1.5749,1.5746,1.574,1.575,1.5778,1.5827,1.5703,1.5716,1.5691,1.5685,1.5731,1.5735,1.5749,1.5855,1.5856,1.5741,1.5744,1.5746,1.5748,0,0,0,0,0,0,0,1.5704,1.5713,1.5803,1.575,1.5745,1.5718,1.5719,1.5787,1.575,1.5714,1.5706,1.5709,1.5728,1.5744,1.5749,1.5856,1.5741,1.5745,1.5749,1.5751,1.607,1.6075,0,0,0,0,0,0,1.5708,1.5711,1.5802,1.5803,1.5711,1.5724,1.5725,1.5752,1.5749,1.5744,1.5713,1.5704,1.5737,1.5742,1.5749,1.5901,1.5746,1.5751,1.5755,1.6065,1.6071,1.6077,0,0,0,0,0,0,1.5706,1.5717,1.5801,1.5755,1.5763,1.5732,1.5763,1.5755,1.577,1.5749,1.5742,1.5736,1.5733,1.5741,1.5828,1.59,1.5754,1.5759,1.6059,1.6067,1.6074,1.6206,0,0,0,0,0,0,1.5703,1.5717,1.5765,1.5757,1.5766,1.5879,1.5767,1.5758,1.5779,1.5767,1.5768,1.5764,1.573,1.5821,1.5834,1.5905,1.5763,1.6052,1.6062,1.6071,1.6196,1.6218,1.6237,0,0,0,0,0,1.5699,1.5804,1.5768,1.578,1.5826,1.5883,1.5889,1.5846,1.5786,1.5835,1.582,1.5764,1.589,1.583,1.5844,1.5918,1.6047,1.6059,1.6071,1.6186,1.6213,1.6236,0,0,0,0,0,0,1.5824,1.5801,1.5762,1.5867,1.5878,1.5864,1.5924,1.5877,1.5906,1.5894,1.5842,1.5843,1.5939,1.5937,1.5871,1.6044,1.5958,1.5973,1.6042,1.6067,1.6088,1.6086,1.5768,0,0,0,0,0,1.5863,1.591,1.5889,1.5984,1.5991,1.5957,1.5981,1.5946,1.5956,1.5961,1.5953,1.5966,1.6008,1.6038,1.6076,1.6194,1.6193,1.6252,1.6273,1.629,1.6304,1.6366,1.6392,1.6115,1.6115,1.6115,0,0,1.5946,1.594,1.5973,1.6009,1.6013,1.6064,1.5962,1.602,1.6058,1.597,1.6051,1.6046,1.6057,1.616,1.6205,1.6162,1.638,1.6305,1.6319,1.6323,1.6381,1.6407,1.6431,1.6123,1.6121,1.612,0,0,1.6123,1.6123,1.6201,1.6207,1.6213,1.619,1.6209,1.6202,1.6195,1.6274,1.6209,1.6254,1.6329,1.6339,1.6354,1.6534,1.6483,1.6548,1.6656,1.6718,1.674,1.6759,1.6823,1.6847,1.6562,1.6562,1.6562,0,1.6226,1.6298,1.6248,1.6311,1.6328,1.6249,1.6328,1.6337,1.6357,1.6372,1.6322,1.6413,1.6415,1.6519,1.6563,1.6578,1.6598,1.6548,1.674,1.6759,1.6776,1.6837,1.6861,1.657,1.6569,1.6568,1.6567,0,1.6424,1.6476,1.6539,1.6557,1.6582,1.6653,1.6615,1.6646,1.661,1.6593,1.6675,1.6674,1.671,1.6732,1.6698,1.6832,1.6805,1.6749,1.6661,1.6811,1.6867,1.689,1.6581,1.6578,1.6576,1.6574,0,0,1.6682,1.667,1.6694,1.6701,1.6702,1.6742,1.681,1.6842,1.6871,1.6887,1.6943,1.7007,1.6954,1.6972,1.6938,1.6992,1.7134,1.6929,1.6929,1.6968,1.7281,1.7324,1.7351,1.71,1.7105,1.7108,1.728,0,1.6854,1.6967,1.6923,1.7041,1.7088,1.7012,1.7071,1.7079,1.7064,1.7103,1.7087,1.7133,1.7061,1.707,1.712,1.7107,1.7197,1.7094,1.7153,1.7156,1.7153,1.7381,1.7426,1.7589,1.7302,1.7306,1.7308,0,1.7071,1.7093,1.7215,1.7206,1.7224,1.7278,1.7304,1.7342,1.735,1.7335,1.7354,1.7308,1.7375,1.7288,1.738,1.731,1.7332,1.7329,1.7334,1.7339,1.7242,1.7392,1.764,1.7664,1.7342,1.734,1.7337,0,1.7247,1.7308,1.7387,1.7396,1.7388,1.7428,1.7427,1.7429,1.7452,1.7475,1.7489,1.7521,1.7539,1.7566,1.753,1.747,1.7628,1.7537,1.7619,1.762,1.7656,1.7654,1.7911,1.767,1.767,1.7669,1.7669,0,1.7444,1.7522,1.7466,1.7516,1.76,1.7549,1.7635,1.7626,1.7628,1.7676,1.7613,1.7659,1.7609,1.7651,1.7624,1.7704,1.7713,1.7704,1.7696,1.771,1.7711,1.7724,1.7712,1.7675,1.7674,1.7673,1.7672,0,1.7655,1.7621,1.7703,1.7688,1.7686,1.775,1.7737,1.7783,1.7763,1.7824,1.7835,1.7805,1.785,1.7817,1.7864,1.7845,1.7951,1.7927,1.7948,1.7942,1.8025,1.8018,1.83,1.8334,1.807,1.8073,1.8075,0,1.7784,1.7841,1.7832,1.7857,1.786,1.7903,1.7925,1.7877,1.7903,1.7915,1.7959,1.7999,1.8028,1.8105,1.8089,1.8124,1.81,1.8196,1.8105,1.8117,1.8102,1.8099,1.8104,1.8215,1.8219,1.8221,1.8223,0,1.8016,1.7995,1.8028,1.8055,1.8082,1.8102,1.8116,1.8142,1.8093,1.8125,1.817,1.8192,1.8238,1.8279,1.8307,1.8308,1.8259,1.8252,1.8272,1.8287,1.8297,1.8293,1.7999,1.8246,1.8243,1.8242,1.8241,1.824,1.8189,1.8236,1.8237,1.8275,1.828,1.8295,1.8337,1.8321,1.8357,1.8389,1.8359,1.8413,1.8419,1.8451,1.8458,1.85,1.8461,1.8491,1.8498,1.8507,1.8518,1.829,1.8505,1.8504,1.8504,1.8503,1.8503,0,1.8418,1.8414,1.845,1.8471,1.8501,1.8449,1.8462,1.8492,1.8539,1.8547,1.8577,1.8628,1.8667,1.8652,1.8687,1.8724,1.8702,1.8734,1.8732,1.8733,1.8552,1.853,1.8751,1.8751,1.8751,1.8751,1.8751,1.8751,1.8541,1.8617,1.8597,1.8676,1.8671,1.8722,1.8734,1.8747,1.8754,1.8813,1.8844,1.8833,1.8833,1.8866,1.89,1.8894,1.891,1.8952,1.8938,1.877,1.8745,1.8722,1.8702,1.8955,1.8956,1.9116,1.9117,1.9118]},{"header":{"parameterUnit":"m.s-1","parameterCategory":1,"la1":30.2991,"la2":30.254,"lo1":-89.0895,"lo2":-89.0444,"dy":0.0017,"dx":0.0017,"nx":28,"ny":28,"refTime":"2023-10-18T03:00:00:Z","depth":0,"parameterNumber":3,"parameterNumberName":"V-component_of_WINDS"},"data":[0,0,0,0,0,0,0,0,0,0,0,0,0,0,0,0,0,0,0,0,0,0,0,0,0,0,0,0,0,0,0,0,0,0,0,0,0,0,0,0,0,0,0,0,0,0,0,0,0,0,0,0,0,0,0,0,0,0,-0.3959,-0.3957,0,-0.3757,-0.3755,-0.3753,-0.369,-0.3691,-0.3692,-0.3693,-0.3485,-0.3478,-0.3472,0,0,0,0,0,0,0,0,0,0,0,0,0,-0.4289,-0.4284,-0.3959,-0.3957,-0.3954,-0.3758,-0.3755,-0.3752,-0.369,-0.3691,-0.3692,-0.3694,-0.3487,-0.3479,-0.3471,0,0,0,0,0,0,0,0,0,0,0,0,0,-0.4123,-0.4282,-0.396,-0.39,-0.3892,-0.3758,-0.3755,-0.3751,-0.369,-0.3691,-0.3693,-0.3694,-0.3489,-0.348,-0.347,-0.3381,0,0,-0.3441,-0.3436,0,0,0,0,0,0,0,0,-0.4132,-0.4111,-0.3911,-0.3904,-0.3895,-0.3751,-0.3795,-0.3627,-0.3689,-0.3767,-0.3693,-0.3695,-0.3572,-0.3555,-0.3514,-0.3371,-0.3362,-0.344,-0.3434,-0.343,-0.3427,0,0,0,0,0,0,0,-0.4144,-0.4119,-0.3879,-0.3908,-0.3898,-0.3882,-0.386,-0.3763,-0.3663,-0.376,-0.3755,-0.3732,-0.3568,-0.3524,-0.3509,-0.3359,-0.344,-0.3431,-0.3425,-0.3422,-0.3133,-0.3131,0,0,0,0,0,0,-0.4166,-0.4129,-0.3886,-0.3873,-0.402,-0.3875,-0.385,-0.3795,-0.3664,-0.3646,-0.3731,-0.373,-0.354,-0.352,-0.3501,-0.3388,-0.343,-0.3421,-0.3415,-0.3135,-0.3133,-0.3131,0,0,0,0,0,0,-0.4173,-0.4145,-0.3894,-0.4,-0.3966,-0.3868,-0.3807,-0.3791,-0.3747,-0.3642,-0.3624,-0.3704,-0.354,-0.3515,-0.3411,-0.338,-0.3416,-0.3407,-0.3137,-0.3134,-0.3132,-0.3161,0,0,0,0,0,0,-0.4183,-0.4148,-0.4113,-0.3999,-0.3961,-0.3808,-0.3805,-0.3786,-0.373,-0.3727,-0.3613,-0.3595,-0.3539,-0.3426,-0.3402,-0.3367,-0.34,-0.3139,-0.3136,-0.3133,-0.3162,-0.3159,-0.3157,0,0,0,0,0,-0.4195,-0.4129,-0.4111,-0.4082,-0.3916,-0.3806,-0.3784,-0.3722,-0.3728,-0.3692,-0.3625,-0.3599,-0.3388,-0.3416,-0.3388,-0.335,-0.3141,-0.3137,-0.3133,-0.3163,-0.316,-0.3157,0,0,0,0,0,0,-0.4239,-0.4112,-0.4092,-0.3987,-0.3908,-0.3796,-0.3748,-0.372,-0.3637,-0.3637,-0.3563,-0.3537,-0.3439,-0.3384,-0.3419,-0.3257,-0.3263,-0.3253,-0.3296,-0.3292,-0.3289,-0.3304,-0.3392,0,0,0,0,0,-0.4238,-0.416,-0.4053,-0.3971,-0.3932,-0.3847,-0.3797,-0.3756,-0.3671,-0.3637,-0.3562,-0.348,-0.3395,-0.3341,-0.3257,-0.3155,-0.3129,-0.3114,-0.3112,-0.311,-0.3102,-0.3044,-0.3036,-0.3117,-0.3117,-0.3117,0,0,-0.4232,-0.4153,-0.4108,-0.3978,-0.3911,-0.3832,-0.3819,-0.3736,-0.3676,-0.3624,-0.3521,-0.3465,-0.3368,-0.3265,-0.3216,-0.3216,-0.3074,-0.3105,-0.3105,-0.3097,-0.3039,-0.3031,-0.3025,-0.3114,-0.3115,-0.3115,0,0,-0.4181,-0.4114,-0.4038,-0.3972,-0.3873,-0.3817,-0.3799,-0.3691,-0.3651,-0.3548,-0.3507,-0.3435,-0.3291,-0.3224,-0.3171,-0.3096,-0.3069,-0.3071,-0.3057,-0.3001,-0.2995,-0.2989,-0.2962,-0.2953,-0.3064,-0.3064,-0.3064,0,-0.4186,-0.4065,-0.4002,-0.392,-0.3864,-0.3815,-0.3737,-0.3677,-0.3555,-0.3517,-0.3519,-0.3337,-0.3269,-0.3149,-0.3132,-0.3091,-0.3067,-0.3083,-0.3001,-0.2994,-0.2988,-0.2961,-0.2951,-0.3065,-0.3065,-0.3065,-0.3064,0,-0.4076,-0.3993,-0.3944,-0.3828,-0.3766,-0.3687,-0.3612,-0.3557,-0.3523,-0.3467,-0.3362,-0.3279,-0.3178,-0.3147,-0.3111,-0.3022,-0.3025,-0.3016,-0.302,-0.2982,-0.2956,-0.2945,-0.3066,-0.3066,-0.3065,-0.3065,0,0,-0.4045,-0.3897,-0.388,-0.3827,-0.3715,-0.3649,-0.3568,-0.347,-0.3424,-0.3342,-0.3272,-0.3152,-0.3143,-0.3083,-0.304,-0.2991,-0.2937,-0.2987,-0.2983,-0.298,-0.2834,-0.2841,-0.283,-0.2919,-0.2917,-0.2915,-0.2842,0,-0.3978,-0.3832,-0.3774,-0.3655,-0.3577,-0.3531,-0.346,-0.3384,-0.333,-0.3256,-0.3197,-0.3112,-0.3106,-0.307,-0.302,-0.2954,-0.2907,-0.2959,-0.2852,-0.2849,-0.2877,-0.2816,-0.2823,-0.2758,-0.2831,-0.2829,-0.2828,0,-0.3881,-0.3799,-0.3673,-0.3571,-0.3536,-0.3474,-0.3379,-0.331,-0.3222,-0.3187,-0.3121,-0.3081,-0.2994,-0.3007,-0.2886,-0.2923,-0.2877,-0.2838,-0.2834,-0.282,-0.2835,-0.28,-0.2735,-0.2725,-0.2811,-0.2813,-0.2814,0,-0.387,-0.3729,-0.3635,-0.3591,-0.347,-0.3427,-0.3375,-0.3289,-0.3234,-0.3151,-0.3115,-0.3024,-0.2973,-0.2904,-0.2841,-0.2855,-0.2726,-0.2733,-0.2694,-0.2695,-0.2667,-0.2669,-0.2593,-0.2639,-0.264,-0.264,-0.264,0,-0.3801,-0.3725,-0.3628,-0.3571,-0.3485,-0.3419,-0.3335,-0.3279,-0.3204,-0.3134,-0.3089,-0.3024,-0.2945,-0.2871,-0.2821,-0.2729,-0.2707,-0.2675,-0.2662,-0.2678,-0.2682,-0.2645,-0.2648,-0.2637,-0.2638,-0.2638,-0.2639,0,-0.3773,-0.3706,-0.36,-0.3495,-0.3467,-0.3408,-0.3317,-0.3259,-0.3205,-0.3117,-0.3093,-0.3006,-0.2916,-0.2847,-0.273,-0.2697,-0.2599,-0.2586,-0.2629,-0.2622,-0.2586,-0.259,-0.2482,-0.2464,-0.2525,-0.2524,-0.2524,0,-0.3733,-0.3674,-0.3563,-0.3513,-0.3461,-0.3382,-0.3326,-0.326,-0.3203,-0.31,-0.3054,-0.2962,-0.2884,-0.2743,-0.2669,-0.258,-0.2563,-0.2532,-0.2549,-0.2568,-0.2562,-0.2566,-0.2559,-0.2529,-0.2529,-0.2529,-0.2528,0,-0.3668,-0.3638,-0.356,-0.347,-0.3405,-0.333,-0.3255,-0.3217,-0.3137,-0.3076,-0.2984,-0.2923,-0.2805,-0.2713,-0.2617,-0.2562,-0.2532,-0.2524,-0.251,-0.2524,-0.2551,-0.2536,-0.2621,-0.2526,-0.2526,-0.2526,-0.2527,-0.2527,-0.3632,-0.3578,-0.3491,-0.3405,-0.3342,-0.3273,-0.3214,-0.3152,-0.3075,-0.2973,-0.2939,-0.2844,-0.2759,-0.2626,-0.2571,-0.2496,-0.2495,-0.2475,-0.247,-0.2465,-0.2467,-0.2565,-0.2479,-0.2479,-0.2479,-0.2479,-0.2479,0,-0.3564,-0.3507,-0.3429,-0.3326,-0.3259,-0.3237,-0.3153,-0.3098,-0.3016,-0.2939,-0.2864,-0.2759,-0.267,-0.2591,-0.2499,-0.2454,-0.2438,-0.2432,-0.2434,-0.2422,-0.2473,-0.2494,-0.2447,-0.2447,-0.2447,-0.2447,-0.2447,-0.2447,-0.3521,-0.3428,-0.3388,-0.3263,-0.3206,-0.3113,-0.3067,-0.3003,-0.2942,-0.2827,-0.2753,-0.2702,-0.2625,-0.2527,-0.2445,-0.2424,-0.2392,-0.2389,-0.2365,-0.2414,-0.2418,-0.2422,-0.2441,-0.2383,-0.2383,-0.2319,-0.2318,-0.2318]}]]